AirNav   Everest Fuels
 
 1455 users online  

KVLL Oakland/Troy Airport
Troy, Michigan, USA

GOING TO TROY?


FAA INFORMATION EFFECTIVE 07 OCTOBER 2021

Location

FAA Identifier: VLL
Lat/Long: 42-32-34.6000N 083-10-40.4000W
42-32.576667N 083-10.673333W
42.5429444,-83.1778889
(estimated)
Elevation: 727.2 ft. / 221.7 m (surveyed)
Variation: 06W (1995)
From city: 2 miles E of TROY, MI
Time zone: UTC -4 (UTC -5 during Standard Time)
Zip code: 48084

Airport Operations

Airport use: Open to the public
Control tower: no
ARTCC: CLEVELAND CENTER
FSS: LANSING FLIGHT SERVICE STATION
NOTAMs facility: VLL (NOTAM-D service available)
Attendance: 0800-1800
Pattern altitude: 1727.2 ft. MSL
Wind indicator: lighted
Segmented circle: no
Lights: ACTVT MIRL RY 09/27 & PAPI RYS 09 & 27 - CTAF.
Beacon: white-green (lighted land airport)
Operates sunset to sunrise.
Landing fee: yes

Airport Communications

CTAF/UNICOM: 123.05
WX AWOS-3: 119.475 (248-288-4649)
DETROIT APPROACH: 134.3
DETROIT DEPARTURE: 134.3
WX ASOS at DET (11 nm SE): PHONE 313-371-9696
WX ASOS at PTK (13 nm NW): 125.025 (248-886-8551)

Nearby radio navigation aids

VOR radial/distance  VOR name  Freq  Var
SVMr069/20.1SALEM VORTAC114.3003W
DXOr029/21.5DETROIT VOR/DME113.4006W
CRLr026/32.2CARLETON VOR/DME115.7003W
FNTr141/35.7FLINT VORTAC116.9006W

 
NDB name  Hdg/Dist  Freq  Var  ID
GROSSE ILE005/26.541907WRYS .-. -.-- ...

Airport Services

Fuel available: 100LL JET-A
Parking: tiedowns
Airframe service: NONE
Powerplant service: NONE

Runway Information

Runway 9/27

Dimensions: 3549 x 60 ft. / 1082 x 18 m
Surface: asphalt, in fair condition
Runway edge lights: medium intensity
RUNWAY 9  RUNWAY 27
Latitude: 42-32.575973N42-32.578848N
Longitude: 083-11.068925W083-10.278788W
Elevation: 727.0 ft.701.0 ft.
Traffic pattern: leftleft
Runway heading: 096 magnetic, 090 true276 magnetic, 270 true
Markings: nonprecision, in good conditionnonprecision, in good condition
Visual slope indicator: 2-light PAPI on right (3.75 degrees glide path)2-light PAPI on left (3.75 degrees glide path)
Runway end identifier lights: nono
Touchdown point: yes, no lightsyes, no lights
Obstructions: 19 ft. tree, 207 ft. from runway, 137 ft. right of centerline30 ft. tree, 200 ft. from runway, 125 ft. left of centerline

Airport Ownership and Management from official FAA records

Ownership: Publicly-owned
Owner: OAKLAND COUNTY
6500 HIGHLAND RD
WATERFORD, MI 48327
Phone 248-288-6100
Manager: CHERYL BUSH
6500 HIGHLAND RD
WATERFORD, MI 48327
Phone 248-666-3900
ARPT PHYS ADS: 2672 INDUSTRIAL ROW DR, TROY, MI 48084.

Airport Operational Statistics

Aircraft based on the field: 107
Single engine airplanes: 97
Multi engine airplanes: 4
Helicopters: 5
Ultralights: 1
    
Aircraft operations: avg 82/day *
50% transient general aviation
50% local general aviation
* for 12-month period ending 31 December 2019

Additional Remarks

DEER AND BIRDS ON & INVOF ARPT.
RY 09 +3 FT BERM 316 FT FM THLD.
NO TGL OR PRACTICE TFC PATTERNS.
FOR CD CTC DETROIT APCH AT 734-955-1404.

Instrument Procedures

NOTE: All procedures below are presented as PDF files. If you need a reader for these files, you should download the free Adobe Reader.

NOT FOR NAVIGATION. Please procure official charts for flight.
FAA instrument procedures published for use from 07 October 2021 at 0901Z to 04 November 2021 at 0900z.

 
STARs - Standard Terminal Arrivals
FOREY TWO (RNAV)   download (167KB)
OKLND ONE (RNAV)   download (149KB)
PETTE TWO (RNAV)   download (210KB)
RRALF THREE (RNAV)   download (169KB)
 
IAPs - Instrument Approach Procedures
RNAV (GPS) RWY 09   download (184KB)
 
Departure Procedures
BARII TWO (RNAV)   download (162KB)
CCOBB TWO (RNAV)   download (206KB)
CLVIN TWO (RNAV)   download (176KB)
HHOWE THREE (RNAV)   download (193KB)
KAYLN TWO (RNAV)   download (170KB)
LIDDS TWO (RNAV)   download (185KB)
MIGGY TWO (RNAV)   download (204KB)
PAVYL TWO (RNAV)   download (181KB)
SNDRS TWO (RNAV)   download (217KB)
TRMML THREE (RNAV)   download (167KB)
ZETTR THREE (RNAV)   download (208KB)
NOTE: Special Take-Off Minimums/Departure Procedures apply   download (125KB)

Other nearby airports with instrument procedures:

KDET - Coleman A Young Municipal Airport (11 nm SE)
KPTK - Oakland County International Airport (13 nm NW)
KMTC - Selfridge Air National Guard Base (16 nm E)
1D2 - Canton-Plymouth-Mettetal Airport (17 nm SW)
57D - Ray Community Airport (17 nm NE)
D98 - Romeo State Airport (18 nm NE)
Y47 - Oakland Southwest Airport (20 nm W)
 
Loc | Ops | Rwys | IFR | FBO | Links
Com | Nav | Svcs | Stats | Notes
Area around KVLL (Oakland/Troy Airport)
 
Road maps at: MapQuest Bing Google
 
Aerial photo
WARNING: Photo may not be current or correct
Aerial photo of KVLL (Oakland/Troy Airport)
Photo by Jeff Schuster
Photo taken 29-Jun-2014
looking west.

Do you have a better or more recent aerial photo of Oakland/Troy Airport that you would like to share? If so, please send us your photo.

 
Sectional chart

 
Airport distance calculator
Flying to Oakland/Troy Airport? Find the distance to fly.

From to KVLL

Sunrise and sunset
Times for 22-Oct-2021
 Local
(UTC-4)
 Zulu
(UTC)
Morning civil twilight07:2611:26
Sunrise07:5511:55
Sunset18:3922:39
Evening civil twilight19:0823:08

Current date and time
Zulu (UTC)  22-Oct-2021 17:31:33
Local (UTC-4)  22-Oct-2021 13:31:33
 
METAR
KVLL 221715Z AUTO 04004KT 10SM CLR 11/01 A3005 RMK AO2 T01050008
KDET 
11nm SE 
221653Z VRB04KT 10SM CLR 11/01 A3004 RMK AO2 SLP175 T01060006
KPTK 
13nm NW 
221653Z 35009KT 10SM SCT032 BKN240 08/01 A3003 RMK AO2 SLP174 T00830006
KMTC 
17nm E 
221656Z VRB04KT 10SM SCT032 SCT065 BKN250 09/02 A3003 RMK AO2A SLP176 T00880019 $
CYQG 
19nm SE 
221700Z AUTO 31005KT 290V360 9SM FEW037 09/M01 A3004 RMK SLP178
KDTW 
20nm S 
221653Z 05005KT 10SM FEW040 BKN220 10/01 A3005 RMK AO2 SLP178 T01000011
TAF
KDET 
11nm SE 
221120Z 2212/2312 32008KT P6SM BKN035 FM221500 31006KT P6SM BKN040 FM230000 VRB03KT P6SM SCT025 BKN050 OVC140 FM230400 VRB03KT P6SM OVC050
KPTK 
13nm NW 
221409Z 2214/2312 33008KT P6SM SCT025 SCT100 SCT200 FM221500 32006KT P6SM BKN035 FM230000 VRB03KT P6SM SCT025 BKN140 FM230400 VRB03KT P6SM OVC050
KMTC 
17nm E 
220900Z 2209/2315 32009KT 9999 SKC QNH2995INS BECMG 2217/2218 VRB06KT 9999 SCT030 SCT200 QNH2997INS BECMG 2301/2302 VRB06KT 9999 BKN050 BKN150 QNH2998INS TX09/2221Z TN05/2307Z LAST NO AMDS AFT 2209 NEXT 2211
CYQG 
19nm SE 
221140Z 2212/2312 32006KT P6SM FEW015 SCT030 TEMPO 2212/2215 BKN015 FM221600 30008KT P6SM BKN030 BKN240 FM222300 32005KT P6SM OVC160 FM230800 30006KT P6SM -SHRA BKN025 OVC060 RMK FCST BASED ON AUTO OBS. NXT FCST BY 221800Z
KDTW 
20nm S 
221532Z 2216/2318 32008KT P6SM SCT040 SCT200 FM221700 31006KT P6SM BKN040 FM230000 VRB03KT P6SM SCT025 BKN050 OVC140 FM230400 VRB03KT P6SM OVC050
NOTAMs
Click for the latest NOTAMs
NOTAMs are issued by the DoD/FAA and will open in a separate window not controlled by AirNav.

 

 
 

FBO, Fuel Providers, and Aircraft Ground Support

  
 Business Name 
 
 Contact 
 
 Services / Description 
 
Fuel Prices
 
Comments
  
24hrfuel 248-781-0241
[web site]
[email]
Aviation fuel

More info about 24hrfuel
Titan
100LL Jet A
SS $5.15 $3.89 
 Updated 20-Oct-2021
 
   write
JDS Pump-N-Go 248-288-6100
[email]
Aviation fuel, Aircraft parking (ramp or tiedown), Hangar leasing / sales

More info about JDS Pump-N-Go
Avfuel
100LL Jet A
SS $5.53 $4.50 
 Updated 08-Oct-2021
 
   write
SS=Self service
Update Fuel Prices
 

Would you like to see your business listed on this page?

 If your business provides an interesting product or service to pilots, flight crews, aircraft, or users of the Oakland/Troy Airport, you should consider listing it here.  To start the listing process, click on the button below
 
Add a business
 

Other Pages about Oakland/Troy Airport

Oakland/Troy Airport Website
Page from the Michigan Airport Directory (PDF)
 
Update a link
 
Copyright © AirNav, LLC. All rights reserved. Privacy Policy  Contact